Susqueda - Veïnat del Far (La Selva)





Hora UTC 01:40
Temperatura 18.3 ºC
Humedad 59.0 %
Presión 1016.3 hPa
Pluja 0.0 mm
Velocidad viento 3.2 km/h
Dirección viento N

Datos diarios 2023-09-28



Hora UTC (invierno +1h; verano +2h)
Temperatura (ºC) Humedad (%) Presión (hPa) Velocidad viento (km/h) Precipitación (mm)
Hora UTC Aire Humedad Presión Vel. Dir. Vel. Max Dir. Intent. máx 5 min.
00:05 18.4 55.0 1016.8 4.8 N 4.8 0.0
00:10 18.4 55.0 1016.6 4.8 N 6.4 0.0
00:15 18.3 56.0 1016.5 6.4 N 8.0 0.0
00:20 18.5 54.0 1016.4 3.2 N 8.0 0.0
00:25 18.5 52.0 1016.4 6.4 N 8.0 0.0
00:30 18.6 52.0 1016.3 6.4 N 9.7 0.0
00:35 18.7 50.0 1016.4 6.4 N 9.7 0.0
00:40 18.7 49.0 1016.5 4.8 N 8.0 0.0
00:45 18.6 51.0 1016.4 4.8 N 6.4 0.0
00:50 18.3 51.0 1016.5 4.8 N 6.4 0.0
00:55 18.1 51.0 1016.5 4.8 N 6.4 0.0
01:00 17.9 54.0 1016.5 4.8 N 4.8 0.0
01:05 17.8 55.0 1016.5 4.8 N 4.8 0.0
01:10 17.7 55.0 1016.4 3.2 N 4.8 0.0
01:15 17.7 56.0 1016.5 3.2 N 6.4 0.0
01:20 18.1 59.0 1016.5 3.2 N 6.4 0.0
01:25 18.4 58.0 1016.4 3.2 N 6.4 0.0
01:30 18.4 58.0 1016.3 3.2 N 4.8 0.0
01:35 18.1 59.0 1016.2 4.8 N 4.8 0.0
01:40 18.3 59.0 1016.3 3.2 N 6.4 0.0
Máxima 18.8 59.0 1016.8 6.4 N 9.7 0.0
Mínima 17.6 49.0 1016.2
Total 0.0